Location: Palomar Mountain Lodge
(33.3110°N, 116.8495°W)
Time: 05:12:28
(UTC-07:00)

Tiangong - Pass Details

Date: 19 February 2026
Orbit: 381 x 391 km, 41.5° (Epoch: 8 March)

Event Time Altitude Azimuth Distance (km) Brightness Sun altitude
Rises 19:06:42 0° 300° (WNW) 2,248 2.8 -19.6°
Reaches altitude 10° 19:08:48 10° 304° (NW) 1,392 1.5 -20.1°
Enters shadow 19:11:15 45° 336° (NNW) 530 -1.4 -20.6°
